Dewpoint
73 74 74 75 75 75 75 76 76 76 76 76 76 77 77 77 77 77 76 77 77 77 77 77 77 77 77 76 76 76 76 76 75 75 75 75 75 75 75 75 75 75 75 75 75 75 75 75 76 77 76 76 76 76 76 75 75 75 75 76 75 75 76 76 75 75 75 75 75 75 74 75 75 75 75 74 75 75 76 75 75 73 74 74 75
73 74 74 75 76 75 75 76 76 76 76 76 76 76 77 77 77 76 77 77 77 77 77 77 77 76 76 76 75 75 75 75 75 75 75 75 75 75 75 75 75 75 75 75 75 75 76 76 76 76 76 76 77 76 76 75 75 75 75 75 75 75 75 75 75 76 75 75 75 75 75 74 75 75 75 75 75 75 75 75 76 74 74 75 75
74 74 74 75 76 76 75 76 76 76 76 76 76 76 76 76 76 77 77 77 77 77 77 76 76 76 76 76 76 76 76 75 75 75 75 75 74 75 75 75 75 75 75 75 75 76 76 76 76 76 76 76 76 76 76 76 75 74 75 75 75 75 75 75 75 75 75 75 75 75 75 75 75 75 75 75 75 75 74 76 75 75 73 75 74
73 74 75 75 76 76 75 76 76 76 76 76 77 76 76 76 77 77 77 77 77 77 76 76 76 76 76 76 76 76 75 75 75 75 75 74 74 74 75 75 75 75 75 75 75 76 76 76 75 75 76 76 76 75 76 76 75 75 75 75 75 75 75 75 75 75 75 75 75 75 75 73 74 75 75 75 75 75 77 76 76 76 75 75 74
74 74 75 75 75 76 76 76 76 76 76 76 77 77 76 76 76 76 76 77 76 76 76 76 76 76 76 76 76 76 75 75 75 75 75 74 74 75 75 75 75 76 75 75 75 75 75 75 75 75 75 76 76 76 76 76 76 75 75 75 75 75 75 74 75 75 75 75 75 75 73 73 73 74 74 75 74 76 76 76 75 75 75 75 75
74 74 75 75 75 76 76 76 76 77 77 76 76 76 76 75 76 76 76 76 76 76 76 76 76 76 76 76 76 75 75 75 75 75 75 74 75 75 75 75 75 75 75 75 75 75 74 75 75 75 75 75 75 76 76 76 76 76 76 75 75 76 75 75 75 75 75 75 75 73 73 73 73 73 74 74 74 74 75 74 74 74 75 74 74
74 74 74 75 75 76 77 77 77 77 77 77 76 76 76 76 77 76 76 76 76 76 76 76 77 76 76 76 75 75 75 75 75 75 75 75 75 75 75 75 75 74 74 75 75 76 76 76 75 75 76 75 75 75 74 75 75 76 75 75 75 75 75 74 74 75 76 75 73 73 73 73 73 73 74 74 75 74 74 73 74 75 75 74 74
73 73 74 75 75 76 77 77 77 77 77 77 76 76 77 77 76 76 75 75 75 75 75 76 76 76 76 76 75 75 75 74 74 75 75 75 75 75 75 75 74 75 76 75 75 76 76 76 76 75 75 75 75 75 75 75 76 75 75 75 75 74 74 74 75 74 76 74 73 73 73 73 73 73 74 74 75 74 74 74 74 74 74 75 75
72 73 74 75 76 77 77 77 77 77 76 77 77 77 77 76 76 76 75 75 75 76 76 76 76 76 75 75 76 75 75 75 75 75 75 75 75 75 75 75 75 75 75 75 75 75 76 76 76 75 75 75 75 75 75 75 75 75 75 75 75 74 74 74 75 75 74 73 73 73 73 72 72 73 74 74 74 74 73 73 73 73 74 75 75
71 73 74 75 76 77 77 77 77 76 76 77 77 77 76 76 76 76 75 75 76 76 76 75 75 76 76 75 75 75 75 75 75 75 75 75 75 75 75 75 75 75 75 75 74 74 74 74 74 75 75 75 75 75 75 76 75 75 75 74 75 75 75 75 75 75 73 73 73 72 73 74 73 73 74 74 75 74 73 74 74 73 74 74 74
72 73 74 75 76 77 77 77 76 77 77 77 76 76 76 76 76 75 75 76 76 75 75 75 75 75 76 75 75 75 75 75 75 75 75 75 75 75 75 75 75 74 74 75 74 74 74 74 75 75 75 75 74 74 75 76 76 75 75 75 75 74 75 75 75 73 73 72 72 73 73 74 72 73 73 74 73 73 73 73 74 74 74 74 74
72 72 73 75 77 77 77 76 77 77 77 77 77 76 76 76 75 75 75 75 75 75 75 75 76 76 75 75 75 75 74 75 75 75 75 75 75 74 75 75 74 74 74 74 74 75 75 75 75 75 75 75 74 74 75 76 76 75 75 75 75 75 75 75 73 73 73 73 73 72 72 72 73 73 73 73 73 73 74 74 74 74 74 74 74
71 72 74 75 76 77 77 77 77 77 77 77 76 76 75 75 75 75 75 75 75 75 76 76 76 75 75 75 74 75 75 75 75 75 75 76 76 74 74 75 75 75 74 74 75 75 75 75 75 75 75 74 74 74 74 75 75 75 75 75 75 75 75 75 73 73 73 73 72 72 72 72 73 74 74 74 74 74 74 74 74 74 74 74 73
72 73 74 75 75 77 77 77 76 77 76 76 76 75 75 75 75 75 75 75 75 76 76 76 76 75 75 75 75 75 75 75 75 75 75 76 76 75 75 75 74 74 75 74 74 74 75 74 74 75 74 74 74 74 75 75 75 74 75 75 75 75 75 74 74 73 73 73 73 72 72 73 73 74 74 74 73 74 74 74 74 74 74 74 73
72 73 74 75 75 75 77 77 76 76 76 76 75 76 76 75 75 75 75 75 75 76 76 75 75 75 75 75 75 75 75 75 75 75 75 75 75 75 75 75 74 75 74 75 74 74 74 74 74 74 75 75 74 74 75 76 75 75 75 75 75 75 75 73 73 73 73 73 73 72 72 72 74 74 74 73 73 73 73 73 74 74 73 73 73
72 73 74 75 75 76 76 77 76 76 76 76 76 76 76 76 76 76 76 76 76 76 76 75 75 75 75 75 75 75 76 75 75 75 75 75 75 75 75 74 74 75 75 75 74 74 74 74 74 75 75 75 75 75 76 74 75 75 75 75 75 75 75 75 73 73 72 72 73 73 72 72 74 74 74 73 73 73 73 73 73 73 73 73 73
73 74 74 74 75 75 75 76 76 76 76 76 76 76 76 76 76 76 76 76 77 76 76 75 76 76 76 76 76 76 75 75 75 75 75 75 75 75 75 74 75 75 75 75 74 74 73 74 75 75 75 75 75 75 75 76 76 75 75 75 75 75 75 74 73 73 73 73 73 72 72 72 73 74 74 74 74 73 73 73 73 73 73 73 73
73 73 74 74 74 75 75 75 75 75 75 76 76 76 76 76 76 76 76 76 76 77 77 76 76 76 76 76 76 75 75 75 75 75 75 75 75 75 75 75 75 75 75 75 75 74 74 75 74 75 76 75 75 75 75 76 76 76 75 75 75 74 74 74 73 73 73 74 73 73 73 73 73 74 74 74 74 74 73 73 73 73 73 73 73
72 73 73 73 74 74 75 75 75 75 75 74 74 75 76 75 76 76 76 76 76 76 76 76 76 76 76 75 75 75 75 75 75 75 75 75 75 75 75 75 75 75 75 75 75 75 75 75 75 76 76 76 75 75 74 74 75 75 75 75 75 75 74 75 72 73 73 72 72 72 73 73 73 74 74 74 74 73 73 73 73 73 73 73 73
72 72 72 73 73 74 75 75 74 74 74 74 74 75 75 75 75 76 76 76 76 76 76 76 75 75 75 75 75 75 75 75 76 74 75 75 75 74 74 75 75 75 75 75 75 75 75 75 75 76 76 75 75 75 75 74 75 75 75 75 75 75 74 73 71 72 72 73 73 72 73 73 73 73 73 75 74 74 73 73 73 73 73 73 73
71 71 71 72 73 73 74 74 74 74 73 74 74 74 74 75 75 76 76 76 76 75 75 75 75 75 75 76 75 75 75 74 74 74 75 75 75 75 75 75 76 75 75 75 76 76 76 76 76 76 76 75 75 74 74 75 75 75 74 74 75 73 74 73 72 73 73 73 74 72 74 73 73 73 73 74 74 74 73 73 74 74 74 73 73
68 69 70 71 72 73 73 73 73 73 73 74 75 75 74 75 75 75 75 75 75 75 75 74 75 74 75 75 75 76 75 74 74 75 75 75 75 75 75 76 76 75 75 75 76 76 76 76 75 76 76 75 75 74 75 74 75 75 75 75 73 73 73 74 72 73 73 73 73 73 74 74 74 74 74 74 74 74 74 73 74 73 73 74 73
66 69 70 71 72 72 73 73 72 73 74 74 74 75 74 75 75 75 75 76 75 76 75 75 75 75 75 75 76 75 75 76 75 76 76 75 75 75 76 76 76 76 76 76 76 76 76 75 75 76 76 75 76 76 75 74 75 74 75 73 72 73 73 73 72 72 73 73 73 74 74 74 74 74 74 74 74 74 74 74 73 73 74 74 74
67 68 69 71 72 72 72 72 72 73 73 73 74 74 74 75 75 75 75 75 75 76 75 75 75 75 75 76 75 75 75 75 75 76 75 75 74 75 76 76 76 76 76 76 75 76 76 76 76 75 76 77 75 75 75 73 75 74 72 73 72 72 73 72 72 72 73 74 74 75 75 75 75 75 75 74 74 74 74 74 74 74 74 73 73
67 68 69 71 71 72 72 72 73 73 73 73 73 73 74 74 74 74 74 75 75 75 75 74 75 75 76 77 75 75 75 75 75 74 74 74 74 74 75 75 75 75 76 75 75 76 76 75 76 77 75 75 75 74 74 73 73 73 74 73 73 72 72 73 72 72 73 73 74 75 75 75 75 74 74 74 74 74 74 74 74 74 74 74 73
67 68 69 71 72 72 72 72 72 72 72 73 73 74 74 73 74 74 74 74 74 74 74 74 74 75 75 76 75 74 74 74 74 75 75 74 74 74 74 75 75 75 77 75 75 75 75 75 75 75 75 74 74 73 74 74 72 72 72 73 74 73 74 71 72 73 73 73 74 74 74 74 74 74 74 74 74 74 74 73 74 73 74 74 73
67 68 70 71 71 71 72 72 72 72 72 73 73 73 73 73 73 73 73 73 74 73 73 74 74 75 75 75 74 74 74 74 73 74 75 74 74 74 74 76 74 74 75 75 74 74 75 74 74 75 74 74 73 73 73 72 72 71 70 71 73 73 73 71 72 73 73 73 74 74 74 74 74 74 74 74 74 74 74 74 73 73 74 74 73
67 68 70 70 71 71 72 71 72 72 72 72 72 72 72 72 72 75 74 74 74 73 74 74 74 74 74 74 75 73 73 73 74 75 74 74 74 74 75 75 76 76 76 76 74 75 75 75 74 74 73 72 71 72 73 71 71 69 70 71 71 71 73 71 72 73 73 73 74 74 74 74 74 74 74 74 74 74 73 73 74 74 73 73 73
66 68 69 70 71 71 71 71 72 71 72 71 71 71 71 70 72 72 72 75 73 73 73 73 73 73 73 76 76 75 73 74 74 74 74 74 74 74 74 75 74 75 75 75 74 74 75 73 72 73 73 72 70 70 71 70 69 69 69 70 70 71 72 71 72 73 73 74 74 74 74 74 74 74 74 73 73 74 73 74 74 73 73 73 72
66 67 68 70 71 71 70 71 72 72 71 70 71 71 70 70 70 71 71 74 71 72 72 71 72 72 73 75 75 74 76 75 73 74 74 74 75 73 73 74 74 75 73 73 75 76 74 73 74 75 72 72 69 68 69 68 68 68 69 69 69 70 72 71 72 72 73 74 74 75 74 74 74 74 73 73 73 73 73 73 73 73 73 73 72
65 66 67 69 71 70 70 71 72 73 71 70 70 70 71 70 71 70 71 70 69 72 71 71 71 73 76 76 76 77 75 74 73 74 74 74 74 74 73 73 73 74 73 74 76 76 75 75 75 75 74 73 71 71 70 67 67 68 68 68 68 70 71 71 71 72 72 73 74 75 75 75 74 74 74 73 73 73 73 73 73 73 73 72 72
64 65 67 68 70 69 69 70 71 71 71 68 71 69 69 70 71 68 69 69 70 70 69 70 72 74 76 76 75 75 77 76 75 74 74 74 74 74 74 73 73 76 75 75 76 75 75 76 76 77 76 74 74 74 72 67 65 66 67 67 68 69 71 71 71 71 71 73 74 74 74 75 75 74 74 74 74 73 74 73 73 73 73 73 73
64 65 66 67 67 68 69 70 70 71 70 68 68 69 69 71 68 68 70 69 69 69 69 70 73 74 76 75 74 75 75 75 76 74 76 74 74 74 75 75 76 75 76 76 76 76 75 76 75 76 75 73 73 72 74 69 64 65 66 66 66 67 70 71 71 71 71 72 73 73 74 75 75 75 75 75 74 74 74 74 74 73 73 73 73
63 64 65 66 66 67 68 69 70 70 69 68 69 68 69 69 68 69 72 67 70 71 72 73 75 76 76 74 74 75 75 77 77 74 74 73 75 74 74 75 75 76 77 77 75 74 74 75 74 73 74 74 72 72 71 68 66 66 65 66 68 68 68 70 71 71 71 72 72 73 74 74 75 74 75 75 75 74 74 74 75 74 74 74 74
63 63 64 65 66 67 68 68 70 70 69 69 69 68 68 69 68 70 69 69 71 72 73 74 75 77 76 75 76 76 77 77 77 76 74 74 74 74 74 75 76 77 75 76 75 74 75 74 76 73 74 72 72 74 73 68 64 65 66 66 66 66 68 68 70 71 71 72 72 73 73 74 74 75 75 75 75 76 75 75 75 75 74 74 74
62 62 64 64 64 66 68 68 69 69 68 69 69 68 68 68 68 72 69 71 71 72 72 73 74 75 76 76 77 77 77 77 77 76 75 74 73 74 75 76 77 76 75 75 76 75 74 75 75 75 73 74 75 71 73 72 68 64 65 65 67 71 69 66 68 71 71 72 72 72 73 74 74 74 76 75 75 76 75 75 75 75 75 75 75
61 62 63 63 64 66 68 68 67 68 69 69 70 70 68 68 70 69 68 71 69 71 72 72 73 73 75 76 77 78 77 77 77 77 76 74 74 74 75 76 77 76 76 75 75 77 75 75 76 76 76 74 73 71 70 71 70 68 66 65 68 71 69 69 65 68 71 72 72 72 73 74 74 76 75 74 74 75 76 76 76 76 75 75 75
61 61 63 62 65 65 67 67 68 68 69 70 69 70 68 70 69 68 70 69 67 69 70 71 72 73 75 76 77 78 77 77 77 77 76 75 74 75 76 77 76 76 76 76 76 75 74 76 75 76 76 74 74 72 70 70 71 70 63 62 66 67 68 70 66 73 68 70 71 72 73 73 74 74 74 74 74 74 75 76 76 76 75 75 75
60 60 63 62 65 65 68 68 68 68 69 70 70 70 68 71 69 68 67 68 68 67 68 69 71 74 75 76 77 77 77 77 78 77 76 76 74 75 76 76 76 76 76 75 75 77 77 75 75 75 76 75 75 74 72 73 73 62 62 65 68 67 67 67 71 71 66 65 69 72 72 72 73 74 74 74 74 74 73 75 75 75 75 75 76
59 60 63 63 65 66 67 68 68 68 69 71 70 70 67 70 67 66 64 67 71 69 68 69 72 74 75 76 77 77 77 78 77 77 77 76 76 76 76 76 76 76 75 74 73 74 75 75 75 75 74 75 75 75 74 72 71 68 70 66 68 69 68 70 70 69 67 61 68 69 69 70 71 72 73 73 74 74 73 74 76 75 75 75 76
60 59 62 63 64 66 67 67 67 69 69 70 69 69 66 69 68 64 62 64 72 70 68 70 73 74 75 76 77 77 77 78 77 77 77 79 77 76 75 76 76 76 75 74 75 75 76 75 76 76 75 74 74 74 73 72 69 65 68 67 66 67 72 73 69 66 66 64 65 66 64 66 67 71 72 73 74 73 73 73 74 74 74 74 76
61 58 63 63 63 66 66 66 68 69 69 70 69 69 68 69 68 65 63 65 71 68 67 71 73 74 75 76 76 77 78 78 78 78 77 76 76 75 74 77 76 75 75 76 75 77 75 75 75 74 75 74 74 73 74 71 67 65 63 65 63 66 68 66 65 65 63 60 62 64 61 60 63 68 70 72 73 73 74 73 74 74 74 74 74
62 57 63 63 63 66 67 67 68 69 69 70 71 70 69 71 68 67 64 67 70 69 67 71 74 74 74 75 76 77 78 78 78 78 77 76 75 75 74 75 77 76 75 76 76 75 74 74 74 74 74 74 76 74 73 72 69 68 70 66 62 60 65 69 68 64 60 60 60 61 62 59 61 62 65 68 71 72 73 73 74 74 74 74 73
62 58 62 62 62 67 67 67 69 69 70 71 72 71 71 71 69 68 67 67 67 68 70 72 73 74 74 75 76 77 77 77 77 78 77 77 76 75 76 75 76 76 76 75 75 74 74 74 74 75 74 71 71 71 74 73 71 68 60 64 63 63 61 61 63 66 61 59 60 58 61 60 61 62 65 62 66 68 69 70 73 73 74 74 74
62 59 62 62 60 66 67 67 69 70 70 72 72 72 72 71 70 69 69 69 70 69 68 68 71 73 73 74 75 76 76 76 76 76 77 76 77 77 77 76 77 77 76 75 75 74 75 74 74 74 74 73 70 71 73 73 71 73 72 65 64 62 63 63 62 63 66 61 59 58 63 60 61 63 67 65 65 66 66 67 69 69 71 72 74
62 59 63 61 61 65 67 68 69 70 70 71 72 71 71 69 69 67 66 65 66 66 65 65 69 71 71 73 75 75 75 75 75 75 76 76 77 77 75 77 77 77 76 76 76 75 75 74 74 75 74 74 72 72 71 74 74 76 71 70 67 63 63 65 60 58 69 69 61 55 62 61 62 65 68 65 65 66 68 67 69 68 70 68 70
63 61 63 61 61 66 67 68 69 70 71 71 72 71 71 68 69 66 67 65 65 65 66 65 67 69 71 72 73 74 74 74 73 74 75 76 77 77 75 76 78 77 78 76 76 74 75 74 75 75 74 75 74 71 70 71 72 74 72 69 70 71 67 64 60 66 59 63 70 61 59 61 63 64 65 63 63 64 68 69 68 69 70 69 69
63 63 63 62 63 66 67 68 69 70 72 70 72 70 70 68 68 67 67 65 64 64 66 65 67 69 70 71 72 73 73 73 73 73 75 75 76 76 75 76 77 77 77 75 74 73 74 75 75 75 75 76 75 72 72 71 70 71 73 70 70 70 65 66 66 65 62 61 60 67 62 59 62 63 64 63 62 65 66 70 69 70 69 71 71
63 63 64 63 66 65 68 68 69 69 71 70 71 70 70 67 67 66 67 67 65 65 67 69 67 68 69 70 71 72 73 73 74 72 75 75 76 75 76 76 75 74 77 74 74 74 72 73 76 76 76 75 76 74 72 72 73 72 71 71 72 68 64 66 66 67 67 63 62 63 63 64 62 62 63 63 62 64 67 68 69 69 71 71 71
64 65 65 65 67 66 68 68 70 68 70 70 70 70 69 68 67 66 65 68 68 66 67 69 66 66 67 70 71 72 72 72 75 73 74 75 76 75 76 75 76 75 75 74 74 73 73 75 76 75 76 76 76 76 74 75 75 74 73 72 71 70 69 69 64 61 65 65 62 62 62 59 58 62 67 60 62 64 65 66 69 70 69 70 70
64 65 65 65 68 66 69 68 69 69 70 69 69 70 69 66 67 66 65 68 68 66 65 68 69 67 65 70 70 72 72 71 73 74 73 75 75 75 75 75 75 75 75 73 73 72 75 75 75 76 76 75 77 76 77 77 75 76 73 72 71 69 67 66 66 66 65 64 60 63 64 60 62 58 61 62 64 64 64 64 65 68 69 69 69